Starlink 32454

operational
NORAD ID: 62142 Int'l Des: 2024-224 Owner: SPXS Country: US Constellation: starlink
LEOCIRCULAR

About Starlink 32454

Description loading...

Live Position

Loading 3D Globe...

Upcoming Passes

Altitude History

Altitude vs Time

uPlot chart will show altitude changes over time

Two-Line Element Set

1 62142U 24224D 25350.52263839 .00014811 00000-0 54643-3 0 9992
2 62142 43.0018 275.3180 0001236 271.7009 88.3701 15.27593726 59678
Epoch: Dec 16, 2025 • Age: 20 hours

Current Status

Altitude 482.9 km
Velocity 7.63 km/s
Sub-Earth Point -0.98°S, 116.93°W
Launch Date Nov 30, 2024
Age 1 years
Type internet

Technical Details

Classification Payload
Mass 730.00 kg
Dry Mass 700.00 kg
Total Mass 730.00 kg
Length 0.30 m
Diameter 4.10 m
Span 29.00 m
Shape Box + pan
Manufacturer SPXS
Bus Type Starlink V2M
Phase Status In Orbit
Owner/State SPXS/US

Large Constellations

Loading constellations...